TimeCDT,TemperatureF,Dew PointF,Humidity,Sea Level PressureIn,VisibilityMPH,Wind Direction,Wind SpeedMPH,Gust SpeedMPH,PrecipitationIn,Events,Conditions,WindDirDegrees,DateUTC
12:51 AM,62.1,24.1,23,30.14,10.0,SE,10.4,-,N/A,,Clear,130,2014-03-30 05:51:00
1:51 AM,57.9,25.0,28,30.15,10.0,SE,8.1,-,N/A,,Clear,140,2014-03-30 06:51:00
2:51 AM,60.1,27.0,28,30.12,10.0,SSE,10.4,-,N/A,,Clear,150,2014-03-30 07:51:00
3:51 AM,55.0,27.0,34,30.11,10.0,SE,6.9,-,N/A,,Clear,140,2014-03-30 08:51:00
4:51 AM,55.9,28.9,36,30.10,10.0,SSE,8.1,-,N/A,,Clear,160,2014-03-30 09:51:00
5:51 AM,51.1,28.0,41,30.10,10.0,SSE,6.9,-,N/A,,Clear,150,2014-03-30 10:51:00
6:51 AM,50.0,28.0,43,30.11,10.0,SSE,8.1,-,N/A,,Clear,150,2014-03-30 11:51:00
7:51 AM,50.0,28.9,44,30.11,10.0,South,5.8,-,N/A,,Clear,170,2014-03-30 12:51:00
8:51 AM,57.0,32.0,39,30.12,10.0,South,8.1,-,N/A,,Clear,170,2014-03-30 13:51:00
9:51 AM,63.0,33.1,33,30.12,10.0,South,12.7,-,N/A,,Clear,180,2014-03-30 14:51:00
10:51 AM,68.0,32.0,26,30.11,10.0,SSE,21.9,31.1,N/A,,Clear,160,2014-03-30 15:51:00
11:51 AM,72.0,30.0,21,30.08,10.0,South,23.0,31.1,N/A,,Clear,180,2014-03-30 16:51:00
12:51 PM,75.0,33.1,22,30.04,10.0,South,23.0,32.2,N/A,,Clear,170,2014-03-30 17:51:00
1:51 PM,78.1,35.1,21,29.99,10.0,SSE,16.1,29.9,N/A,,Clear,160,2014-03-30 18:51:00
2:51 PM,81.0,39.0,22,29.94,10.0,SSE,19.6,29.9,N/A,,Clear,160,2014-03-30 19:51:00
3:51 PM,82.9,41.0,23,29.89,10.0,South,23.0,31.1,N/A,,Clear,180,2014-03-30 20:51:00
4:51 PM,82.0,42.1,24,29.86,10.0,South,20.7,36.8,N/A,,Clear,170,2014-03-30 21:51:00
5:51 PM,82.0,42.1,24,29.84,10.0,South,23.0,33.4,N/A,,Clear,170,2014-03-30 22:51:00
6:51 PM,79.0,43.0,28,29.84,10.0,SSE,19.6,28.8,N/A,,Clear,160,2014-03-30 23:51:00
7:51 PM,77.0,44.1,31,29.84,10.0,South,15.0,27.6,N/A,,Clear,180,2014-03-31 00:51:00
8:51 PM,73.9,44.1,34,29.86,10.0,South,17.3,-,N/A,,Clear,170,2014-03-31 01:51:00
9:51 PM,73.0,43.0,34,29.86,10.0,South,16.1,-,N/A,,Clear,170,2014-03-31 02:51:00
10:51 PM,72.0,43.0,35,29.85,10.0,SSE,15.0,21.9,N/A,,Clear,160,2014-03-31 03:51:00
11:51 PM,70.0,45.0,41,29.83,10.0,South,11.5,21.9,N/A,,Clear,170,2014-03-31 04:51:00